Port de Québec

Opérations

Carcy img 9181

Dernière mise à jour le : samedi 20 octobre 2018 19:43

Navires au Port

Poste Nom du navire C-1836 H.P.D Nat. L.H.T. J.B.E Agent Orig. Dest. C/D Remarques
14 CAP TOURMENTE 57919 CA 14.33 3 PECA QBC QBC Attente
17 OMNI ATLAS 57835 CA 40.6 479 GROCE QBC ACF Attente
17 JERRY G 57832 CA 27.95 202 REMQU QBC ACF Attente
17 OCEAN COTE-NORD 58058 CA 22.89 79 GROCE ICD ICD Attente
17 OCEAN M.I.L. 232 57850 CA 31.7 244 GROCE QBC ACF Attente
17 OCEAN UANNAQ 58148 CA 9.6 1 GROCE ICD ACF Attente
17 FULMAR 58655 2018-11-09 22:22 FR 39.79 550 MTL NFL ACF Services portuaires
18 ALGOMA STRONGFIELD 58766 2018-10-21 22:22 CA 225.55 24 ALGOM WIN HAM D Vrac solide
19 NORDIK EXPRESS 54716 CA 67.04 1 DESG RKI QBC Attente
19 ECRC-SIMEC 300 57864 2018-10-31 00:00 CA 58.66 499 COPIM QBC QBC Attente
20 OCEAN ECHO 2 58749 CA 33.53 438 REMQU TAD ACF Attente
20 OCEAN ECHO 2 58658 CA 33.53 438 REMQU ICD ACF Attente
20 OCEAN CLOVIS T 58673 CA 30.65 381 GROCE ICD ACF Attente
20 OCEAN CHARLIE 58428 CA 37.55 447 TRR ICD ACF Attente
20 OCEAN CAPE CROW 57947 CA 11.55 14 OCEA1 QBC ACF Attente
20 OCEAN ARCTIQUE 58732 CA 33.5 512 OCEA1 MTL Services portuaires
20 LOIS M 58427 CA 35.96 453 OCEA1 ICD ACF Attente
20 LAC ST-FRANCOIS 57879 CA 59.43 682 GROCE QBC ACF Attente
20 DOVER LIGHT 57863 CA 38.8 695 COPIM QBC QBC Attente
20 BROCHU 57833 CA 30.99 390 GROCE QBC ACF Attente
20 AVANTAGE 57891 CA 31.63 367 GROCE ICD ACF Services portuaires
20 OCEAN HENRY BAIN 58221 CA 30.8 402 GROCE MTL ACF EN SERVICE
20 ORLEANS 57873 CA 62.91 768 COPIM QBC ACF Attente
20 OCEAN SERGE GENOIS 58263 CA 22.91 20 OCEA1 MTL ACF Attente
20 PUGWASH 58577 2018-10-22 07:00 CA 72.75 5 OCEAN MTL QBC Attente
26 ETHAN 55751 TZ 108.26 4 DDINH QBC QBC Attente
27 CARILLONS 57861 CA 19.81 90 BEPR MTL ACF Attente
27 TORONTO 401 57862 CA 91.44 3 BEPR HAM ACF Attente
28 NESTOR A8YG5 58752 2018-10-21 19:00 LR 225.0 41 NATRA TRV CI C Vrac solide
29 CSL NIAGARA 58768 2018-10-22 22:22 CA 225.5 23 CSL HAM BEC D Vrac solide
31 ALPHONSE DESJARDINS 58724 CA 60.93 1 ST QBC QBC Services portuaires
31 LUCIEN L 58735 2018-11-13 00:00 CA 67.32 785 ST SOR Services portuaires
50 LIAN XI HU 58767 2018-10-21 02:00 HK 183.2 29 RG ESO MTL D Vrac liquide
52 RIO TAMARA 58764 2018-10-21 05:00 LR 224.92 41 MCA ROT TNT C Divers
71 VIDAR VIKING 58490 NO 83.7 3 ROREF SW ACF Attente
74 BALDER VIKING 58488 NO 83.7 3 ROREF SW ACF Attente
74 TOR VIKING 58489 NO 83.7 3 ROREF SW ACF Attente
87 CAPE BARI 58765 2018-10-20 21:00 MH 274.47 81 OT GAL VE D Pétrole brut
106 FUNDY PARADISE 48628 CA 97.85 3 MARIS TRV QBC Attente
205 LAURENTIA DESGAGNES 58758 2018-10-20 20:30 CA 228.6 42 PETRO MTL SRG Services portuaires
301 ORIENT ADVENTURE 58754 2018-10-23 00:00 LR 180.0 23 NATRA PIR QBC Services portuaires
302 TRANSCENDEN TIME 58713 2018-10-21 19:00 SG 179.9 20 NATRA SOR QBC Services portuaires
303 CHEM NORMA 58756 2018-10-21 08:00 MH 144.8 11 RG MTL MER Attente

Dernière mise à jour le : samedi 20 octobre 2018 19:43

Navires attendus

Poste Nom du navire Réserv. H.P.A. Nat. L.H.T. J.B.E Agent Orig. Dest. C/D Remarques
87 LAURENTIA DESGAGNES 72218 2018-10-20 22:15 CA 228.6 42 PETRO 205 MTL D Pétrole brut
52 BRIGHT GEMINI 72237 2018-10-21 05:00 PA 228.99 43 LSL SEP C Divers
18 CSL ST LAURENT 72045 2018-10-21 17:00 CA 225.5 22 CSL HAM D Vrac solide
28 TRANSCENDEN TIME 72070 2018-10-21 20:30 SG 179.9 20 NATRA RMH VEZ C Vrac solide
103 BEVERLY M I 72220 2018-10-21 22:22 CA 34.95 450 RG GAS Services portuaires
103 DOWDEN SPIRIT 72219 2018-10-21 22:22 CA 73.4 2 RG GAS Cargo divers
28 FEDERAL TAMBO 72185 2018-10-22 01:00 MH 190.0 31 LSL ROT TAK C Vrac solide
21 SEABOURN QUEST 67696 2018-10-22 08:00 BS 198.19 32 RG MTL IDL Croisière
22 AIDADIVA 68039 2018-10-22 08:00 IT 251.89 69 MCKE HLX MTL Croisière
26 PUGWASH 72251 2018-10-22 08:00 CA 72.75 5 OCEAN QBC QBC
87 ESPADA DESGAGNES 72232 2018-10-22 12:00 CA 228.6 42 PETRO MTL MTL D Pétrole brut
28 ORIENT ADVENTURE 72165 2018-10-23 00:00 LR 180.0 23 NATRA RMH JOR C Vrac solide
86 TASING SWAN 72182 2018-10-23 01:00 DK 129.75 7 PETRO CM RKI C Vrac liquide
22 HAMBURG 68364 2018-10-23 11:00 BS 145.0 15 LSL Croisière
104 TUFTY 72125 2018-10-23 15:45 CY 185.14 19 LSL PRG TOR D Vrac solide
53 BULK TRIDENT 72144 2018-10-23 21:00 PA 189.99 30 LSL D Vrac solide
86 BRO AGNES 72235 2018-10-23 21:00 SG 144.05 12 PETRO C Vrac liquide
18 ALGOMA HARVESTER 72041 2018-10-24 00:00 CA 225.55 23 ALGOM D Vrac solide
22 SILVER SPIRIT 66972 2018-10-24 08:00 BS 210.7 39 RG SGY TRV Croisière
87 CAP QUEBEC 72224 2018-10-24 08:30 GR 277.0 82 OT D Pétrole brut
53 FEDERAL NAKAGAWA 72140 2018-10-24 11:11 HK 199.99 20 LSL JON ACF C Vrac solide
53 JOHN D LEITCH 72141 2018-10-25 00:01 CA 222.51 22 ALGOM D Divers
22 ROYAL PRINCESS - ZCEI3 67244 2018-10-25 09:00 BM 330.0 142 RG CHN SGY Croisière
52 JOHN D LEITCH 72142 2018-10-25 11:30 CA 222.51 22 ALGOM C Vrac solide
86 JANA DESGAGNES 72250 2018-10-25 15:45 CA 123.72 6 PETRO C Vrac liquide
51 ELKA ELEFSIS 72186 2018-10-25 23:00 LR 189.0 31 RG MTL D Vrac liquide
28 SHANDONG FU YUAN 72184 2018-10-26 00:00 HK 229.0 44 NATRA C Vrac solide
103 A ETRE CONFIRME 72233 2018-10-26 00:00 CA 0.0 1 MARIO Services portuaires
103 A ETRE CONFIRME 72234 2018-10-26 00:00 CA 0.0 1 MARIO Cargo divers
86 KITIKMEOT W. 72245 2018-10-26 01:00 CA 149.95 13 HSMAL C Produits pétroliers
30 AIDADIVA 68040 2018-10-26 08:00 IT 251.89 69 MCKE MTL HLX Croisière
53 ALGOMA VALUE 72231 2018-10-26 11:00 MH 244.73 46 LSL D Sel
27 NACC QUEBEC 72146 2018-10-27 00:00 CA 139.95 10 D En attente
28 AMALFI 72187 2018-10-27 00:00 MT 225.0 40 NATRA GIB SIN C Vrac solide
87 LAURENTIA DESGAGNES 72246 2018-10-27 00:00 CA 228.6 42 PETRO MTL MTL D Pétrole brut
52 ALGOMA SAULT 72239 2018-10-27 05:00 CA 225.55 24 ALGOM C Divers
21 SILVER SPIRIT 66973 2018-10-27 08:00 BS 210.7 39 RG MTL SGY Croisière
30 SEVEN SEAS NAVIGATOR 67822 2018-10-27 08:00 BS 172.0 28 MCKE SGY MTL Croisière
86 TASING SWAN 72236 2018-10-27 11:11 DK 129.75 7 PETRO RKI C Vrac liquide
107 CINNAMON 72249 2018-10-27 18:00 CY 186.44 18 LSL D Vrac solide
53 ALBATROSS 72230 2018-10-27 22:00 PA 157.23 15 LSL GIB D Vrac solide
30 PIERRE RADISSON 72097 2018-10-28 00:00 CA 98.33 5 PECA Inspection
52 PATRICIA OLDENDORFF 72238 2018-10-28 00:00 LR 255.28 63 C Divers
87 ESPADA DESGAGNES 72247 2018-10-28 00:00 CA 228.6 42 PETRO MTL MTL D Pétrole brut
30 JOS-DESCHENES II 72121 2018-10-28 11:11 CA 87.3 2 ST QBC QBC Attente
51 ARCTIC 72079 2018-10-28 11:11 CA 220.83 20 RG D Vrac solide
53 OAKGLEN 72143 2018-10-28 15:00 CA 222.49 22 CSL D Divers
107 ALOUETTE SPIRIT 72148 2018-10-28 22:22 CA 129.0 10 EVAN WIN WIN D Vrac solide
107 WILF SEYMOUR 72147 2018-10-28 22:22 CA 36.58 442 EVAN WIN WIN Services portuaires
21 SEVEN SEAS NAVIGATOR 67823 2018-10-29 08:00 BS 172.0 28 MCKE MTL SYD Croisière
22 SILVER WIND C6FG2 66976 2018-10-29 08:00 BS 155.81 17 RG TAD MTL Croisière
102 FMT KNIDOS 72223 2018-10-30 11:11 MT 135.59 8 C Vrac liquide
53 REESTBORG 72154 2018-10-30 12:00 NL 169.75 14 LSL D Vrac solide
50 LAS CUEVAS 72241 2018-11-01 00:00 PA 179.8 27 LSL BAX LSS D Vrac liquide
19 LEIM 72207 2018-11-01 11:11 CA 21.05 211 PECA RKI Attente
101 JOS-DESCHENES II 72130 2018-11-01 11:11 CA 87.3 2 ST LOZ QBC Attente
31 FELIX ANTOINE SAVARD 72099 2018-11-02 00:00 CA 83.0 2 ST SOR IDL Services portuaires
104 WHISTLER 72126 2018-11-06 22:22 CY 199.9 22 LSL D Vrac solide
105 WIGEON 72127 2018-11-07 04:00 LR 199.9 22 LSL D Vrac solide
14 TRANS ST LAURENT 72021 2019-01-07 00:00 CA 76.08 2 TRLSS Hivernage
999 BELLA DESGAGNES 72020 2019-03-05 00:00 CA 97.1 6 DESG Hivernage

Dernières données reçues:
2018/10/20 à 19:10

Conditions climatiques
Caméra Web Heure locale

Québec

Marée

Descendante

Prochaine marée
Basse

00:03

Haute

05:06

Température
samedi 20 octobre

Température actuelle

6C

Nuit partiellement dégagée

MAX / 12 MIN / 5

Lever 07:11 AM  Coucher 05:50 PM

dimanche 21 octobre

Journée partiellement dégagée

MAX / 5 MIN / 1

Lever 07:12 AM  Coucher 05:48 PM

Vent

ENE 15 km/h (8 kts)

Humidité

67%

Pression

99.9kPa

Température de l'eau

10.0C (50.0F)

FermerFermer

Accueil > Opérations > Opérations > Navires au port